Find Starlink 3675

NORAD ID: 51963 Int'l Des: 2022-025 Owner: SPXS Country: US Constellation: starlink operational
LEOCIRCULAR

Live-Position

3D-Globus wird geladen...

Über Starlink 3675

Beschreibung wird geladen...

Nächste Überflüge

Passes for default location (London). Set your location on the main map for personalized predictions.

Höhenverlauf

Loading altitude history...

Zweizeiliger Elementsatz

1 51963U 22025H 26125.23198055 .00000415 00000-0 25152-4 0 9993
2 51963 53.1609 110.6719 0001243 85.1599 274.9544 15.31699592229831
Epoch: 5. Mai 2026 • Age: 10 hours

Aktueller Status

Höhe 470.8 km
Geschwindigkeit 7.63 km/s
Subsatellitenpunkt 18.25°N, 176.28°E
Startdatum 9. März 2022
Alter 4.1 years
Typ internet

Technische Details

Klassifizierung Payload
Masse 297.00 kg
Trockenmasse 275.00 kg
Gesamtmasse 297.00 kg
Länge 0.20 m
Durchmesser 2.80 m
Spannweite 9.00 m
Form Box + pan
Hersteller SPXS
Bus-Typ Starlink
Phasenstatus In Orbit
Besitzer/Staat SPXS/US

Most Searched